Flag for Spain

Past Weather in Madrid, Spain — Yesterday and Last 2 Weeks

Currently: 52 °F. Scattered clouds. (Weather station: Madrid / Cuatro Vientos, Spain). See more current weather

Past Weather in Madrid — Graph

°F

Madrid Temperature Yesterday

Maximum temperature yesterday: 52 °F (at 11:30 pm)
Minimum temperature yesterday: 39 °F (at 1:00 am)
Average temperature yesterday: 44 °F

High & Low Weather Summary for the Past Weeks

 TemperatureHumidityPressure
High54 °F (Jan 24, 1:00 pm)100% (Jan 9, 1:00 pm)30.42 "Hg (Jan 9, 1:00 pm)
Low12 °F (Jan 12, 6:30 am)30% (Jan 13, 4:00 pm)29.53 "Hg (Jan 9, 1:30 pm)
Average36 °F83%30.13 "Hg
* Reported Jan 9 1:00 pm — Jan 24 1:00 pm, Madrid. Weather by CustomWeather, © 2021

Note: Actual official high and low records may vary slightly from our data, if they occured in-between our weather recording intervals... More about our weather records

Madrid Weather History for the Previous 24 Hours

Scroll right to see more
 ConditionsComfort  
Time TempWeatherWind HumidityBarometerVisibility
1:00 pm
Sun, Jan 24
54 °FScattered clouds.15 mph58%29.98 "HgN/A
12:30 pm52 °FPassing clouds.13 mph67%29.98 "HgN/A
12:00 pm50 °FPassing clouds.10 mph71%29.98 "HgN/A
11:30 am50 °FPassing clouds.10 mph76%29.98 "HgN/A
11:00 am50 °FPassing clouds.14 mph62%29.98 "HgN/A
10:30 am50 °FPassing clouds.17 mph62%29.95 "HgN/A
10:00 am48 °FPassing clouds.13 mph71%29.95 "HgN/A
9:30 am48 °FPassing clouds.9 mph66%29.95 "HgN/A
9:00 am46 °FPassing clouds.9 mph71%29.95 "HgN/A
8:30 am46 °FPassing clouds.9 mph66%29.92 "HgN/A
8:00 am46 °FPassing clouds.18 mph66%29.89 "HgN/A
7:30 am48 °FClear.21 mph62%29.86 "Hg10 mi
7:00 am48 °FPassing clouds.17 mph66%29.86 "HgN/A
6:30 am46 °FClear.16 mph76%29.86 "Hg10 mi
6:00 am48 °FClear.23 mph71%29.83 "Hg10 mi
5:30 am48 °FClear.25 mph76%29.80 "Hg10 mi
5:00 am52 °FClear.30 mph58%29.80 "Hg10 mi
4:30 am52 °FClear.31 mph58%29.80 "Hg10 mi
4:00 am50 °FPassing clouds.22 mph62%29.80 "HgN/A
3:30 am50 °FClear.18 mph67%29.80 "Hg10 mi
3:00 am50 °FClear.17 mph76%29.80 "Hg10 mi
2:30 am52 °FPartly cloudy.17 mph94%29.77 "HgN/A
1:30 am52 °FClear.18 mph94%29.77 "Hg10 mi
1:00 am52 °FClear.20 mph94%29.77 "Hg10 mi
12:30 am52 °FPassing clouds.24 mph94%29.77 "HgN/A
12:00 am52 °FPassing clouds.24 mph100%29.77 "HgN/A
11:30 pm
Sat, Jan 23
52 °FLow clouds.20 mph94%29.74 "HgN/A
11:00 pm50 °FLow clouds.15 mph100%29.74 "HgN/A
10:30 pm48 °FLow clouds.13 mph100%29.74 "HgN/A
10:00 pm48 °FLow clouds.13 mph100%29.77 "HgN/A
9:30 pm48 °FLow clouds.13 mph100%29.77 "Hg6 mi
9:00 pm48 °FFog.14 mph100%29.77 "Hg3 mi
8:30 pm48 °FLow clouds.16 mph94%29.77 "Hg5 mi
8:00 pm46 °FLow clouds.18 mph100%29.77 "HgN/A
7:30 pm46 °FLow clouds.17 mph100%29.77 "HgN/A
7:00 pm46 °FLight rain. Low clouds.18 mph100%29.80 "Hg6 mi
6:30 pm46 °FLight rain. Low clouds.20 mph100%29.80 "Hg6 mi
6:00 pm46 °FLight rain. Low clouds.21 mph100%29.80 "Hg6 mi
5:30 pm48 °FPartly sunny.24 mph94%29.83 "Hg6 mi
5:00 pm48 °FLight rain. Partly sunny.25 mph94%29.83 "HgN/A
4:30 pm48 °FPartly sunny.24 mph87%29.83 "HgN/A
4:00 pm48 °FPartly sunny.25 mph87%29.86 "Hg6 mi
3:30 pm46 °FLight rain. Partly sunny.26 mph93%29.86 "Hg3 mi
3:00 pm46 °FPartly sunny.24 mph93%29.86 "HgN/A
2:30 pm46 °FPartly sunny.23 mph87%29.89 "Hg4 mi
2:12 pm46 °FLight rain. Partly sunny.20 mph87%29.89 "Hg3 mi
Weather by CustomWeather, © 2021

See weather overview